| time (UTC) | temp C | wind direction | speed KPH | gust KPH | rain 1hr cm | rain 24hr cm | rain mn cm | humidity % | barometer mb |
| 20260508094332 | 7 | 341 | 3.2 | 11.3 | 0.00 | 0.46 | 0.00 | 93 | 1020.3 |
| 20260508091343 | 6 | 51 | 1.6 | 6.4 | 0.00 | 0.46 | 0.00 | 93 | 1020.4 |
| 20260508085836 | 6 | 80 | 0.0 | 8.0 | 0.00 | 0.46 | 0.00 | 91 | 1020.4 |
| 20260508084332 | 6 | 182 | 1.6 | 8.0 | 0.00 | 0.48 | 0.00 | 91 | 1020.3 |
| 20260508081342 | 6 | 179 | 0.0 | 3.2 | 0.00 | 0.48 | 0.00 | 92 | 1020.2 |
| 20260508075838 | 6 | 208 | 1.6 | 8.0 | 0.00 | 0.48 | 0.00 | 93 | 1020.4 |
| 20260508072842 | 6 | 183 | 0.0 | 3.2 | 0.00 | 0.51 | 0.00 | 92 | 1020.1 |
| 20260508064348 | 6 | 191 | 1.6 | 6.4 | 0.00 | 0.53 | 0.00 | 90 | 1019.9 |
| 20260508062835 | 6 | 197 | 1.6 | 4.8 | 0.00 | 0.53 | 0.00 | 84 | 1019.8 |
| 20260508055844 | 5 | 140 | 0.0 | 8.0 | 0.00 | 0.53 | 0.00 | 89 | 1019.7 |
| 20260508054340 | 4 | 150 | 3.2 | 9.7 | 0.00 | 0.53 | 0.00 | 92 | 1019.6 |
| 20260508051346 | 2 | 221 | 1.6 | 8.0 | 0.00 | 0.53 | 0.00 | 93 | 1019.8 |
| 20260508045839 | 1 | 218 | 0.0 | 1.6 | 0.00 | 0.53 | 0.00 | 94 | 1019.8 |
| 20260508044334 | 1 | 218 | 0.0 | 0.0 | 0.00 | 0.53 | 0.00 | 94 | 1019.6 |
| 20260508041348 | 2 | 220 | 6.4 | 11.3 | 0.00 | 0.53 | 0.00 | 93 | 1019.7 |
| 20260508035841 | 0 | 211 | 8.0 | 9.7 | 0.00 | 0.53 | 0.00 | 94 | 1019.6 |
| 20260508032845 | 0 | 147 | 0.0 | 0.0 | 0.00 | 0.53 | 0.00 | 94 | 1019.7 |
| 20260508031338 | 0 | 147 | 0.0 | 0.0 | 0.00 | 0.53 | 0.00 | 93 | 1019.9 |
| 20260508022908 | 0 | 147 | 0.0 | 1.6 | 0.00 | 0.53 | 0.00 | 94 | 1020.3 |
| 20260508021401 | -1 | 147 | 0.0 | 0.0 | 0.00 | 0.53 | 0.00 | 94 | 1020.3 |
| 20260508015853 | -1 | 147 | 0.0 | 0.0 | 0.00 | 0.53 | 0.00 | 94 | 1020.3 |
| 20260508012911 | 0 | 147 | 0.0 | 0.0 | 0.00 | 0.53 | 0.00 | 94 | 1020.3 |
| 20260508011400 | 0 | 147 | 0.0 | 0.0 | 0.00 | 0.53 | 0.00 | 94 | 1020.1 |
| 20260508005854 | 0 | 147 | 0.0 | 0.0 | 0.00 | 0.53 | 0.00 | 94 | 1020.2 |
| 20260508002910 | 0 | 147 | 0.0 | 0.0 | 0.00 | 0.53 | 0.00 | 93 | 1020.0 |
| 20260508001359 | 0 | 147 | 0.0 | 0.0 | 0.00 | 0.53 | 0.00 | 94 | 1019.9 |
| 20260507234407 | 1 | 116 | 1.6 | 6.4 | 0.00 | 0.53 | 0.00 | 94 | 1019.9 |
| 20260507232501 | 1 | 116 | 0.0 | 3.2 | 0.00 | 0.53 | 0.00 | 94 | 1020.0 |
| 20260507225849 | 2 | 116 | 0.0 | 1.6 | 0.00 | 0.53 | 0.00 | 94 | 1020.2 |
| 20260507222905 | 3 | 117 | 0.0 | 8.0 | 0.00 | 0.56 | 0.00 | 94 | 1020.1 |
| 20260507215900 | 3 | 109 | 3.2 | 8.0 | 0.00 | 0.56 | 0.00 | 94 | 1020.0 |
| 20260507214357 | 3 | 109 | 3.2 | 6.4 | 0.00 | 0.61 | 0.56 | 94 | 1020.0 |
| 20260507212853 | 3 | 109 | 1.6 | 8.0 | 0.00 | 0.61 | 0.56 | 94 | 1019.9 |
| 20260507211353 | 3 | 108 | 4.8 | 8.0 | 0.00 | 0.61 | 0.56 | 94 | 1019.9 |
| 20260507204408 | 3 | 106 | 4.8 | 8.0 | 0.00 | 0.64 | 0.56 | 94 | 1020.0 |
| 20260507202858 | 4 | 98 | 1.6 | 6.4 | 0.00 | 0.64 | 0.56 | 93 | 1019.9 |
| 20260507201353 | 4 | 97 | 3.2 | 6.4 | 0.00 | 0.64 | 0.56 | 94 | 1019.8 |
| 20260507194407 | 4 | 98 | 3.2 | 8.0 | 0.00 | 0.69 | 0.56 | 94 | 1019.6 |
| 20260507192901 | 4 | 105 | 1.6 | 8.0 | 0.00 | 0.69 | 0.56 | 94 | 1019.4 |
| 20260507191355 | 4 | 107 | 0.0 | 8.0 | 0.00 | 0.69 | 0.56 | 94 | 1019.2 |
| 20260507184406 | 4 | 132 | 1.6 | 3.2 | 0.00 | 0.79 | 0.56 | 94 | 1019.0 |
| 20260507182857 | 4 | 132 | 0.0 | 1.6 | 0.00 | 0.79 | 0.56 | 94 | 1018.7 |
| 20260507175907 | 5 | 132 | 1.6 | 3.2 | 0.00 | 0.79 | 0.56 | 94 | 1018.2 |
| 20260507174401 | 5 | 132 | 0.0 | 6.4 | 0.00 | 0.79 | 0.56 | 94 | 1017.8 |
| 20260507171409 | 5 | 146 | 3.2 | 4.8 | 0.00 | 0.79 | 0.56 | 93 | 1017.8 |
| 20260507165903 | 5 | 152 | 0.0 | 8.0 | 0.00 | 0.79 | 0.56 | 92 | 1017.8 |
| 20260507164400 | 5 | 158 | 3.2 | 6.4 | 0.00 | 0.79 | 0.56 | 91 | 1017.5 |
| 20260507161407 | 6 | 105 | 0.0 | 6.4 | 0.00 | 0.79 | 0.56 | 91 | 1017.5 |
| 20260507155900 | 6 | 111 | 6.4 | 11.3 | 0.00 | 0.79 | 0.56 | 90 | 1017.5 |
| 20260507152911 | 6 | 88 | 4.8 | 9.7 | 0.03 | 0.79 | 0.56 | 91 | 1017.5 |
| 20260507151407 | 6 | 290 | 1.6 | 9.7 | 0.03 | 0.79 | 0.56 | 91 | 1017.3 |
| 20260507145856 | 6 | 100 | 4.8 | 11.3 | 0.05 | 0.79 | 0.56 | 92 | 1017.3 |
| 20260507144351 | 6 | 19 | 4.8 | 14.5 | 0.05 | 0.76 | 0.53 | 91 | 1017.3 |
| 20260507141403 | 6 | 53 | 6.4 | 12.9 | 0.10 | 0.76 | 0.53 | 91 | 1017.5 |
| 20260507135859 | 7 | 50 | 6.4 | 12.9 | 0.10 | 0.74 | 0.51 | 91 | 1017.6 |
| 20260507132910 | 5 | 93 | 3.2 | 12.9 | 0.10 | 0.79 | 0.46 | 93 | 1017.9 |
| 20260507131409 | 5 | 214 | 0.0 | 6.4 | 0.10 | 0.76 | 0.43 | 93 | 1017.9 |
| 20260507125858 | 3 | 72 | 1.6 | 9.7 | 0.13 | 0.74 | 0.43 | 94 | 1018.1 |
| 20260507122908 | 2 | 161 | 3.2 | 11.3 | 0.23 | 0.74 | 0.36 | 94 | 1018.1 |
| 20260507115913 | 3 | 166 | 1.6 | 8.0 | 0.20 | 0.69 | 0.30 | 94 | 1017.7 |
| 20260507114409 | 3 | 302 | 1.6 | 4.8 | 0.15 | 0.69 | 0.23 | 94 | 1017.8 |
| 20260507111411 | 5 | 350 | 1.6 | 9.7 | 0.00 | 0.53 | 0.10 | 94 | 1017.4 |
| 20260507105900 | 5 | 283 | 0.0 | 8.0 | 0.00 | 0.53 | 0.10 | 94 | 1017.4 |
| 20260507102904 | 6 | 83 | 3.2 | 8.0 | 0.00 | 0.56 | 0.10 | 93 | 1017.3 |
| 20260507095904 | 6 | 103 | 1.6 | 14.5 | 0.00 | 0.56 | 0.10 | 91 | 1017.5 |